TimeMST,TemperatureF,Dew PointF,Humidity,Sea Level PressureIn,VisibilityMPH,Wind Direction,Wind SpeedMPH,Gust SpeedMPH,PrecipitationIn,Events,Conditions,WindDirDegrees,DateUTC
12:15 AM,10.4,1.4,67,30.56,10.0,South,4.6,-,N/A,,Clear,190,2013-01-03 07:15:00
12:35 AM,8.6,-0.4,67,30.56,10.0,South,5.8,-,N/A,,Clear,190,2013-01-03 07:35:00
12:55 AM,8.6,-0.4,67,30.55,10.0,South,5.8,-,N/A,,Clear,190,2013-01-03 07:55:00
1:15 AM,6.8,-2.2,67,30.54,10.0,South,5.8,-,N/A,,Clear,180,2013-01-03 08:15:00
1:35 AM,6.8,-0.4,72,30.54,10.0,South,5.8,-,N/A,,Clear,180,2013-01-03 08:35:00
1:55 AM,8.6,-2.2,62,30.54,10.0,South,5.8,-,N/A,,Clear,180,2013-01-03 08:55:00
2:15 AM,6.8,-2.2,67,30.53,10.0,Calm,Calm,-,N/A,,Clear,0,2013-01-03 09:15:00
2:35 AM,6.8,-2.2,67,30.53,10.0,East,4.6,-,N/A,,Clear,100,2013-01-03 09:35:00
2:55 AM,3.2,-5.8,66,30.53,10.0,East,4.6,-,N/A,,Clear,80,2013-01-03 09:55:00
3:15 AM,3.2,-4.0,72,30.53,10.0,East,6.9,-,N/A,,Clear,80,2013-01-03 10:15:00
3:35 AM,6.8,-2.2,67,30.52,10.0,ESE,5.8,-,N/A,,Clear,110,2013-01-03 10:35:00
3:55 AM,6.8,-2.2,67,30.52,10.0,ESE,5.8,-,N/A,,Clear,110,2013-01-03 10:55:00
4:15 AM,6.8,-2.2,67,30.52,10.0,ESE,3.5,-,N/A,,Clear,110,2013-01-03 11:15:00
4:35 AM,8.6,-2.2,62,30.51,10.0,SE,5.8,-,N/A,,Clear,130,2013-01-03 11:35:00
4:55 AM,6.8,-2.2,67,30.51,10.0,SE,4.6,-,N/A,,Clear,140,2013-01-03 11:55:00
5:15 AM,6.8,-0.4,72,30.51,10.0,SW,3.5,-,N/A,,Clear,220,2013-01-03 12:15:00
5:35 AM,6.8,-2.2,67,30.51,10.0,Calm,Calm,-,N/A,,Clear,0,2013-01-03 12:35:00
5:55 AM,6.8,-2.2,67,30.51,10.0,Calm,Calm,-,N/A,,Clear,0,2013-01-03 12:55:00
6:15 AM,6.8,-2.2,67,30.52,10.0,Calm,Calm,-,N/A,,Clear,0,2013-01-03 13:15:00
6:35 AM,6.8,-4.0,61,30.52,10.0,SSE,4.6,-,N/A,,Clear,160,2013-01-03 13:35:00
6:55 AM,6.8,-2.2,67,30.52,10.0,SSE,4.6,-,N/A,,Clear,160,2013-01-03 13:55:00
7:15 AM,6.8,-5.8,56,30.52,10.0,Calm,Calm,-,N/A,,Clear,0,2013-01-03 14:15:00
7:35 AM,3.2,-5.8,66,30.52,10.0,Calm,Calm,-,N/A,,Clear,0,2013-01-03 14:35:00
7:55 AM,3.2,-4.0,72,30.51,10.0,East,3.5,-,N/A,,Clear,80,2013-01-03 14:55:00
8:15 AM,3.2,-4.0,72,30.51,8.0,Calm,Calm,-,N/A,,Clear,0,2013-01-03 15:15:00
8:35 AM,3.2,-5.8,66,30.51,8.0,Calm,Calm,-,N/A,,Clear,0,2013-01-03 15:35:00
8:55 AM,3.2,-4.0,72,30.52,8.0,Calm,Calm,-,N/A,,Clear,0,2013-01-03 15:55:00
9:15 AM,6.8,-2.2,67,30.52,9.0,Calm,Calm,-,N/A,,Clear,0,2013-01-03 16:15:00
9:35 AM,6.8,-4.0,61,30.53,8.0,SW,5.8,-,N/A,,Clear,220,2013-01-03 16:35:00
9:55 AM,6.8,-4.0,61,30.53,9.0,SSW,5.8,-,N/A,,Clear,200,2013-01-03 16:55:00
10:15 AM,6.8,-2.2,67,30.54,10.0,SSW,6.9,-,N/A,,Clear,200,2013-01-03 17:15:00
10:35 AM,8.6,-4.0,57,30.55,10.0,South,8.1,-,N/A,,Clear,180,2013-01-03 17:35:00
11:35 AM,10.4,-0.4,62,30.54,10.0,SE,5.8,-,N/A,,Clear,130,2013-01-03 18:35:00
11:55 AM,12.2,-0.4,57,30.53,10.0,ESE,5.8,-,N/A,,Clear,110,2013-01-03 18:55:00
12:15 PM,12.2,-0.4,57,30.52,10.0,SE,6.9,-,N/A,,Clear,140,2013-01-03 19:15:00
12:35 PM,12.2,1.4,62,30.51,10.0,SW,6.9,-,N/A,,Clear,220,2013-01-03 19:35:00
12:55 PM,12.2,1.4,62,30.51,10.0,SW,4.6,-,N/A,,Clear,220,2013-01-03 19:55:00
1:15 PM,12.2,1.4,62,30.50,10.0,SW,3.5,-,N/A,,Clear,230,2013-01-03 20:15:00
1:35 PM,12.2,1.4,62,30.49,10.0,Calm,Calm,-,N/A,,Clear,0,2013-01-03 20:35:00
1:55 PM,14.0,1.4,57,30.48,10.0,Calm,Calm,-,N/A,,Clear,0,2013-01-03 20:55:00
2:15 PM,14.0,1.4,57,30.48,10.0,Calm,Calm,-,N/A,,Clear,0,2013-01-03 21:15:00
2:35 PM,14.0,1.4,57,30.47,10.0,Calm,Calm,-,N/A,,Clear,0,2013-01-03 21:35:00
2:55 PM,15.8,1.4,53,30.48,10.0,WSW,5.8,-,N/A,,Clear,240,2013-01-03 21:55:00
3:15 PM,15.8,1.4,53,30.47,10.0,SW,5.8,-,N/A,,Clear,230,2013-01-03 22:15:00
3:35 PM,15.8,1.4,53,30.47,10.0,SW,3.5,-,N/A,,Clear,230,2013-01-03 22:35:00
3:55 PM,15.8,3.2,58,30.47,10.0,Calm,Calm,-,N/A,,Clear,0,2013-01-03 22:55:00
4:15 PM,15.8,1.4,53,30.47,10.0,WSW,4.6,-,N/A,,Clear,240,2013-01-03 23:15:00
4:35 PM,15.8,1.4,53,30.47,10.0,WSW,5.8,-,N/A,,Clear,240,2013-01-03 23:35:00
4:55 PM,15.8,1.4,53,30.48,10.0,WSW,6.9,-,N/A,,Clear,250,2013-01-03 23:55:00
5:15 PM,14.0,1.4,57,30.48,10.0,West,5.8,-,N/A,,Clear,260,2013-01-04 00:15:00
5:35 PM,14.0,3.2,62,30.48,10.0,WSW,3.5,-,N/A,,Clear,250,2013-01-04 00:35:00
5:55 PM,12.2,1.4,62,30.48,10.0,NW,3.5,-,N/A,,Clear,320,2013-01-04 00:55:00
6:15 PM,12.2,1.4,62,30.48,9.0,North,3.5,-,N/A,,Clear,350,2013-01-04 01:15:00
6:35 PM,12.2,1.4,62,30.48,10.0,NNE,3.5,-,N/A,,Clear,20,2013-01-04 01:35:00
6:55 PM,10.4,1.4,67,30.48,10.0,NNE,3.5,-,N/A,,Clear,30,2013-01-04 01:55:00
7:15 PM,10.4,1.4,67,30.48,10.0,NNE,3.5,-,N/A,,Clear,30,2013-01-04 02:15:00
7:35 PM,10.4,1.4,67,30.47,7.0,ENE,4.6,-,N/A,,Clear,70,2013-01-04 02:35:00
7:55 PM,10.4,1.4,67,30.48,9.0,East,3.5,-,N/A,,Clear,80,2013-01-04 02:55:00
8:15 PM,8.6,-0.4,67,30.48,8.0,Calm,Calm,-,N/A,,Clear,0,2013-01-04 03:15:00
8:35 PM,6.8,-0.4,72,30.49,8.0,NW,3.5,-,N/A,,Clear,310,2013-01-04 03:35:00
8:55 PM,8.6,-0.4,67,30.49,7.0,West,3.5,-,N/A,,Clear,270,2013-01-04 03:55:00
9:35 PM,8.6,1.4,73,30.50,5.0,West,3.5,-,N/A,,Clear,270,2013-01-04 04:35:00
9:55 PM,8.6,1.4,73,30.50,5.0,Calm,Calm,-,N/A,,Clear,0,2013-01-04 04:55:00
10:15 PM,6.8,1.4,79,30.51,4.0,Calm,Calm,-,N/A,,Clear,0,2013-01-04 05:15:00
10:35 PM,6.8,-0.4,72,30.51,4.0,Calm,Calm,-,N/A,,Clear,0,2013-01-04 05:35:00
10:55 PM,6.8,-0.4,72,30.51,5.0,Calm,Calm,-,N/A,,Clear,0,2013-01-04 05:55:00
11:15 PM,6.8,-0.4,72,30.52,5.0,Calm,Calm,-,N/A,,Clear,0,2013-01-04 06:15:00
11:35 PM,6.8,-0.4,72,30.52,5.0,Calm,Calm,-,N/A,,Clear,0,2013-01-04 06:35:00
11:55 PM,6.8,-0.4,72,30.51,5.0,Calm,Calm,-,N/A,,Clear,0,2013-01-04 06:55:00